This is the latest recevied weather packets stored in our database for station/object WA7ABU-29. If no packets are shown the sender has not sent any weather packets the latest 10 day(s).
| Time | Temp. | Humidity | Pressure | Rain* | Wind** | Luminosity | Snow |
|---|---|---|---|---|---|---|---|
| 1777575321 | 16.67° C | 63% | 999.3 hPa | 0 mm | - | - | - |
| 1777575198 | 16.11° C | 65% | 999.7 hPa | 0 mm | - | - | - |
| 1777574545 | 16.67° C | 65% | 999.7 hPa | 0 mm | - | - | - |
| 1777573739 | 16.11° C | 62% | 999.7 hPa | 0 mm | - | - | - |
| 1777572997 | 16.11° C | 68% | 1000 hPa | 0 mm | - | - | - |
| 1777572302 | 15.56° C | 65% | 1000 hPa | 0 mm | - | - | - |
| 1777569966 | 15° C | 66% | 1000 hPa | 0 mm | - | - | - |
| 1777569099 | 14.44° C | 67% | 1000 hPa | 0 mm | - | - | - |
| 1777566873 | 13.33° C | 73% | 1000.3 hPa | 0 mm | - | - | - |
| 1777566244 | 12.78° C | 72% | 1000.3 hPa | 0 mm | - | - | - |
| 1777565872 | 12.78° C | 73% | 1000.3 hPa | 0 mm | - | - | - |
| 1777564849 | 12.22° C | 73% | 1000.3 hPa | 0 mm | - | - | - |
| 1777564601 | 12.22° C | 74% | 1000.7 hPa | 0 mm | - | - | - |
| 1777564321 | 12.22° C | 75% | 1000.3 hPa | 0 mm | - | - | - |
| 1777563788 | 12.22° C | 76% | 1000.3 hPa | 0 mm | - | - | - |
| 1777563540 | 11.67° C | 77% | 1000.3 hPa | 0 mm | - | - | - |
| 1777561642 | 10.56° C | 81% | 1000.7 hPa | 0 mm | - | - | - |
| 1777561620 | 10.56° C | 81% | 1000.7 hPa | 0 mm | - | - | - |
| 1777560058 | 9.44° C | 81% | 1000.3 hPa | 0 mm | - | - | - |
| 1777559934 | 9.44° C | 80% | 1000.3 hPa | 0 mm | - | - | - |
| 1777559811 | 9.44° C | 80% | 1000.3 hPa | 0 mm | - | - | - |
| 1777558910 | 8.89° C | 81% | 1000 hPa | 0 mm | - | - | - |
| 1777558786 | 8.89° C | 82% | 1000.3 hPa | 0 mm | - | - | - |
| 1777558538 | 8.33° C | 82% | 1000 hPa | 0 mm | - | - | - |
| 1777558291 | 8.33° C | 81% | 1000.3 hPa | 0 mm | - | - | - |
* Rain latest hour (hover to see other rain measurements)
** Current wind speed in m/s (hover to see current wind gust speed)